Pittsburgh, PA

11:14 AM EDT on September 15, 2019 (GMT -0400)
Pittsburgh International

Weather History for KPIT - August, 2019

Change the Weather History Date:

Saturday, August 24, 2019

  Actual Average Record
Temperature  
Mean Temperature 66 °F 71 °F  
Max Temperature 75 °F 81 °F 94 °F (1918)
Min Temperature 56 °F 61 °F 45 °F (1890)
Degree Days  
Heating Degree Days 0 0  
Month to date heating degree days 0 0  
Since 1 June heating degree days 35 42  
Since 1 July heating degree days 0 4  
Cooling Degree Days 0 6  
Month to date cooling degree days 199 168  
Year to date cooling degree days 736 611  
Since 1 June cooling degree days 653 559  
Growing Degree Days 16 (Base 50)    
Moisture  
Dew Point 48 °F    
Average Humidity 57    
Maximum Humidity 80    
Minimum Humidity 38    
Precipitation  
Precipitation 0.00 in 0.10 in 1.09 in (1934)
Month to date precipitation 1.79 2.71  
Year to date precipitation 34.10 25.94  
Snow  
Snow 0.00 in 0.00 in 0.00 in (2002)
Month to date snowfall 0.0 0.0  
Since 1 July snowfall 0.0 0.0  
Snow Depth 0.00 in    
Sea Level Pressure  
Sea Level Pressure 30.22 in    
Wind  
Wind Speed 6 mph ()    
Max Wind Speed 15 mph    
Max Gust Speed 18 mph    
Visibility 10.0 miles    
Events      
T = Trace of Precipitation, MM = Missing Value Source: Averaged Metar Reports

Daily Weather History Graph

Daily Weather History Graph

Search for Another Location

Airport or City:

Astronomy

Aug. 24, 2019 Rise Set
Actual Time 6:40 AM EDT 8:05 PM EDT
Civil Twilight 6:11 AM EDT 8:34 PM EDT
Nautical Twilight 5:37 AM EDT 9:08 PM EDT
Astronomical Twilight 5:00 AM EDT 9:44 PM EDT
Moon 12:31 AM EDT (8/24) 3:20 PM EDT (8/24)
Length of Visible Light 14h 22m
Length of Day
13h 25m
Last Quarter, 39% of the Moon is Illuminated
Aug 24
Last Quarter
Aug 30
New
Sep 5
First Quarter
Sep 14
Full
Sep 21
Last Quarter

Hourly Weather History & Observations

Time (EDT) Temp. Dew Point Humidity Pressure Visibility Wind Dir Wind Speed Gust Speed Precip Events Conditions
12:51 AM 62.1 °F 51.1 °F 67% 30.19 in 10.0 mi NNE 10.4 mph - N/A   Scattered Clouds
1:51 AM 61.0 °F 51.1 °F 70% 30.18 in 10.0 mi NNE 8.1 mph - N/A   Partly Cloudy
2:51 AM 60.1 °F 50.0 °F 69% 30.18 in 10.0 mi NNE 5.8 mph - N/A   Partly Cloudy
3:51 AM 57.9 °F 50.0 °F 75% 30.19 in 10.0 mi NNE 5.8 mph - N/A   Partly Cloudy
4:51 AM 57.0 °F 50.0 °F 77% 30.20 in 10.0 mi East 3.5 mph - N/A   Partly Cloudy
5:51 AM 57.0 °F 50.0 °F 77% 30.21 in 10.0 mi NNE 4.6 mph - N/A   Partly Cloudy
6:51 AM 57.0 °F 50.0 °F 77% 30.23 in 10.0 mi NNE 5.8 mph - N/A   Partly Cloudy
7:51 AM 57.9 °F 51.1 °F 78% 30.26 in 10.0 mi NNE 3.5 mph - N/A   Partly Cloudy
8:51 AM 61.0 °F 52.0 °F 72% 30.25 in 10.0 mi East 4.6 mph - N/A   Partly Cloudy
9:51 AM 64.9 °F 51.1 °F 61% 30.25 in 10.0 mi East 6.9 mph - N/A   Partly Cloudy
10:51 AM 69.1 °F 48.9 °F 49% 30.25 in 10.0 mi East 6.9 mph - N/A   Partly Cloudy
11:51 AM 70.0 °F 45.0 °F 41% 30.25 in 10.0 mi NE 11.5 mph - N/A   Scattered Clouds
12:51 PM 71.1 °F 45.0 °F 39% 30.24 in 10.0 mi NE 10.4 mph - N/A   Mostly Cloudy
1:51 PM 70.0 °F 46.0 °F 42% 30.24 in 10.0 mi NE 8.1 mph - N/A   Mostly Cloudy
2:51 PM 73.0 °F 46.9 °F 39% 30.23 in 10.0 mi Variable 3.5 mph - N/A   Mostly Cloudy
3:51 PM 72.0 °F 45.0 °F 38% 30.22 in 10.0 mi North 5.8 mph - N/A   Scattered Clouds
4:51 PM 72.0 °F 46.9 °F 41% 30.21 in 10.0 mi ENE 4.6 mph - N/A   Scattered Clouds
5:51 PM 72.0 °F 46.0 °F 40% 30.21 in 10.0 mi North 6.9 mph - N/A   Scattered Clouds
6:51 PM 72.0 °F 46.0 °F 40% 30.21 in 10.0 mi NE 9.2 mph - N/A   Scattered Clouds
7:51 PM 70.0 °F 46.9 °F 44% 30.22 in 10.0 mi NE 5.8 mph - N/A   Partly Cloudy
8:51 PM 66.9 °F 48.0 °F 51% 30.23 in 10.0 mi NNE 8.1 mph - N/A   Partly Cloudy
9:51 PM 64.9 °F 48.0 °F 54% 30.24 in 10.0 mi NE 9.2 mph - N/A   Partly Cloudy
10:51 PM 63.0 °F 48.0 °F 58% 30.25 in 10.0 mi ENE 6.9 mph - N/A   Partly Cloudy
11:51 PM 61.0 °F 48.0 °F 62% 30.25 in 10.0 mi East 5.8 mph - N/A   Clear